TimeEST,TemperatureF,Dew PointF,Humidity,Sea Level PressureIn,VisibilityMPH,Wind Direction,Wind SpeedMPH,Gust SpeedMPH,PrecipitationIn,Events,Conditions,WindDirDegrees,DateUTC
12:53 AM,73.0,71.1,93,30.09,10.0,East,5.8,-,N/A,,Clear,100,2013-01-07 05:53:00
1:53 AM,73.0,70.0,90,30.07,10.0,East,3.5,-,N/A,,Clear,90,2013-01-07 06:53:00
2:53 AM,72.0,70.0,93,30.07,10.0,Calm,Calm,-,0.01,,Partly Cloudy,0,2013-01-07 07:53:00
3:18 AM,71.6,69.8,94,30.07,10.0,Calm,Calm,-,N/A,,Mostly Cloudy,0,2013-01-07 08:18:00
3:27 AM,71.6,69.8,94,30.07,10.0,Calm,Calm,-,N/A,,Scattered Clouds,0,2013-01-07 08:27:00
3:53 AM,72.0,66.0,81,30.06,10.0,Calm,Calm,-,N/A,,Partly Cloudy,0,2013-01-07 08:53:00
4:53 AM,70.0,69.1,97,30.07,10.0,East,4.6,-,N/A,,Scattered Clouds,100,2013-01-07 09:53:00
5:53 AM,72.0,70.0,93,30.08,10.0,ESE,4.6,-,N/A,,Scattered Clouds,120,2013-01-07 10:53:00
6:53 AM,71.1,68.0,90,30.09,10.0,East,5.8,-,N/A,,Scattered Clouds,100,2013-01-07 11:53:00
7:53 AM,72.0,69.1,91,30.10,10.0,Calm,Calm,-,N/A,,Partly Cloudy,0,2013-01-07 12:53:00
8:53 AM,77.0,73.0,88,30.12,10.0,East,8.1,-,N/A,,Partly Cloudy,100,2013-01-07 13:53:00
9:53 AM,79.0,69.1,72,30.13,10.0,East,10.4,-,N/A,,Partly Cloudy,100,2013-01-07 14:53:00
10:53 AM,81.0,68.0,65,30.12,10.0,East,8.1,-,N/A,,Partly Cloudy,90,2013-01-07 15:53:00
11:53 AM,81.0,69.1,67,30.09,10.0,East,11.5,-,N/A,,Scattered Clouds,100,2013-01-07 16:53:00
12:53 PM,81.0,68.0,65,30.07,10.0,ESE,9.2,-,N/A,,Scattered Clouds,110,2013-01-07 17:53:00
1:53 PM,81.0,68.0,65,30.06,10.0,ESE,10.4,-,N/A,,Scattered Clouds,110,2013-01-07 18:53:00
2:53 PM,80.1,68.0,67,30.05,10.0,East,10.4,-,N/A,,Scattered Clouds,100,2013-01-07 19:53:00
3:53 PM,79.0,68.0,69,30.06,10.0,East,11.5,-,N/A,,Scattered Clouds,100,2013-01-07 20:53:00
4:53 PM,78.1,66.9,68,30.06,10.0,East,8.1,-,N/A,,Partly Cloudy,80,2013-01-07 21:53:00
5:53 PM,75.9,66.9,74,30.08,10.0,East,8.1,-,N/A,,Clear,90,2013-01-07 22:53:00
6:53 PM,75.9,69.1,79,30.09,10.0,East,9.2,-,N/A,,Clear,80,2013-01-07 23:53:00
7:53 PM,75.9,69.1,79,30.10,10.0,ENE,8.1,-,N/A,,Clear,70,2013-01-08 00:53:00
8:53 PM,75.0,69.1,82,30.11,10.0,ENE,6.9,-,N/A,,Clear,60,2013-01-08 01:53:00
9:53 PM,75.0,69.1,82,30.11,10.0,ENE,8.1,-,N/A,,Clear,60,2013-01-08 02:53:00
10:53 PM,75.0,70.0,84,30.10,10.0,ENE,8.1,-,N/A,,Clear,70,2013-01-08 03:53:00
11:53 PM,75.0,70.0,84,30.09,10.0,ENE,8.1,-,N/A,,Clear,70,2013-01-08 04:53:00